DW4252 Weather Reports


time (UTC)temp
F
wind
direction
speed
knots
gust
knots
rain 1hr
in
rain 24hr
in
rain mn
in
humidity
%
barometer
mb
20260507225004 45 63 0.9 1.7 0.00 0.00 0.00 84 1016.7
20260507223004 46 45 0.9 3.5 0.00 0.00 0.00 84 1016.7
20260507222003 46 50 0.9 1.7 0.00 0.00 0.00 84 1016.6
20260507220004 46 54 0.9 2.6 0.00 0.00 0.00 83 1016.8
20260507213003 47 60 0.9 1.7 0.00 0.00 0.00 82 1017.0
20260507212004 48 63 1.7 2.6 0.00 0.00 0.00 81 1016.8
20260507205003 49 0 0.0 0.0 0.00 0.00 0.00 79 1017.0
20260507204004 49 72 0.9 1.7 0.00 0.00 0.00 78 1016.9
20260507203004 49 80 0.9 1.7 0.00 0.00 0.00 77 1016.7
20260507202003 50 86 0.9 3.5 0.00 0.00 0.00 77 1016.5
20260507201004 50 88 2.6 3.5 0.00 0.00 0.00 76 1016.4
20260507200004 51 85 2.6 4.3 0.00 0.00 0.00 75 1016.0
20260507195004 51 82 1.7 3.5 0.00 0.00 0.00 74 1016.0
20260507194004 51 76 1.7 3.5 0.00 0.00 0.00 74 1016.1
20260507193005 52 69 1.7 2.6 0.00 0.00 0.00 73 1016.0
20260507192004 53 66 0.9 2.6 0.00 0.00 0.00 73 1016.0
20260507191005 53 66 2.6 3.5 0.00 0.00 0.00 72 1016.1
20260507185004 54 93 1.7 3.5 0.00 0.00 0.00 66 1015.9
20260507184005 55 123 1.7 3.5 0.00 0.00 0.00 66 1015.9
20260507183004 55 150 1.7 2.6 0.00 0.00 0.00 66 1015.8
20260507182004 56 167 1.7 3.5 0.00 0.00 0.00 66 1015.9
20260507181004 56 173 2.6 5.2 0.00 0.00 0.00 66 1015.8
20260507180005 57 173 3.5 5.2 0.00 0.00 0.00 66 1015.8
20260507175005 57 172 3.5 5.2 0.00 0.00 0.00 66 1015.9
20260507174008 58 174 3.5 7.0 0.00 0.00 0.00 65 1015.8
20260507172005 59 166 2.6 4.3 0.00 0.00 0.00 64 1015.9
20260507171005 60 167 3.5 5.2 0.00 0.00 0.00 64 1016.0
20260507170005 60 159 3.5 5.2 0.00 0.00 0.00 64 1016.0
20260507165004 60 163 3.5 7.8 0.00 0.00 0.00 65 1015.8
20260507164004 60 159 4.3 6.1 0.00 0.00 0.00 65 1015.8
20260507163005 59 161 3.5 6.1 0.00 0.00 0.00 64 1015.9
20260507162005 59 165 3.5 6.1 0.00 0.00 0.00 65 1015.8
20260507161005 59 157 2.6 3.5 0.00 0.00 0.00 65 1016.1
20260507160005 58 164 3.5 6.1 0.00 0.00 0.00 65 1016.0
20260507155005 58 163 1.7 4.3 0.00 0.00 0.00 66 1016.1
20260507154005 58 128 1.7 3.5 0.00 0.00 0.00 67 1016.2
20260507153005 58 114 2.6 6.1 0.00 0.00 0.00 68 1016.4
20260507152005 57 90 1.7 3.5 0.00 0.00 0.00 68 1016.2
20260507151005 57 73 2.6 5.2 0.00 0.00 0.00 68 1016.2
20260507145005 58 77 3.5 6.1 0.00 0.00 0.00 67 1016.2
20260507144004 58 80 3.5 7.8 0.00 0.00 0.00 67 1016.2
20260507142005 58 77 4.3 7.0 0.00 0.00 0.00 65 1016.2
20260507141004 58 84 3.5 6.1 0.00 0.00 0.00 65 1016.2
20260507140006 57 90 3.5 6.1 0.00 0.00 0.00 65 1016.3
20260507135005 57 93 1.7 3.5 0.00 0.00 0.00 67 1016.5
20260507134005 57 91 2.6 4.3 0.00 0.00 0.00 67 1016.4
20260507133005 56 71 1.7 4.3 0.00 0.00 0.00 67 1016.4
20260507132004 56 68 1.7 3.5 0.00 0.00 0.00 68 1016.4
20260507131005 56 86 0.9 3.5 0.00 0.00 0.00 68 1016.4
20260507125005 55 147 0.0 2.6 0.00 0.00 0.00 69 1016.4
20260507123004 55 72 0.9 1.7 0.00 0.00 0.00 69 1016.4
20260507122005 55 74 0.9 1.7 0.00 0.00 0.00 67 1016.5
20260507121005 55 73 1.7 2.6 0.00 0.00 0.00 67 1016.7
20260507120005 56 81 0.9 1.7 0.00 0.00 0.00 67 1016.5
20260507115004 56 89 1.7 3.5 0.00 0.00 0.00 66 1016.8
20260507114006 56 61 0.9 3.5 0.00 0.00 0.00 66 1016.6
20260507113006 56 72 0.9 2.6 0.00 0.00 0.00 66 1016.5
20260507112005 56 86 1.7 3.5 0.00 0.00 0.00 65 1016.6
20260507111005 56 90 2.6 4.3 0.00 0.00 0.00 65 1016.6
20260507110005 56 124 2.6 5.2 0.00 0.00 0.00 64 1016.7
20260507105005 57 122 1.7 4.3 0.00 0.00 0.00 64 1016.7
20260507104005 57 104 1.7 2.6 0.00 0.00 0.00 65 1016.8
20260507102007 57 98 1.7 4.3 0.00 0.00 0.00 64 1016.8
20260507101005 57 82 2.6 4.3 0.00 0.00 0.00 64 1017.0
20260507095005 57 12 1.7 2.6 0.00 0.00 0.00 64 1016.6
20260507094005 57 63 0.9 2.6 0.00 0.00 0.00 64 1016.8
20260507093005 57 64 1.7 3.5 0.00 0.00 0.00 64 1016.7
20260507092005 57 71 1.7 5.2 0.00 0.00 0.00 65 1016.8
20260507091004 56 73 4.3 7.8 0.00 0.00 0.00 67 1016.7
20260507085005 56 75 3.5 5.2 0.00 0.00 0.00 72 1016.6
20260507084006 55 77 2.6 4.3 0.00 0.00 0.00 74 1016.7
20260507083005 54 84 3.5 5.2 0.00 0.00 0.00 75 1016.8
20260507082005 53 86 2.6 6.1 0.00 0.00 0.00 79 1016.8
20260507081004 53 86 4.3 7.8 0.00 0.00 0.00 79 1016.6
20260507080005 52 85 3.5 6.1 0.00 0.00 0.00 80 1016.6
20260507075004 52 88 3.5 6.1 0.00 0.00 0.00 82 1016.6
20260507073005 51 93 4.3 7.8 0.00 0.00 0.00 85 1016.5
20260507072005 51 162 1.7 4.3 0.00 0.00 0.00 86 1016.4
20260507070009 49 228 0.9 1.7 0.00 0.00 0.00 86 1016.2
20260507065005 49 208 1.7 2.6 0.00 0.00 0.00 86 1016.2
20260507064005 48 191 0.9 1.7 0.00 0.00 0.00 85 1016.0
20260507063005 48 143 0.9 1.7 0.00 0.00 0.00 85 1016.1
20260507062005 49 116 1.7 3.5 0.00 0.00 0.00 86 1016.1
20260507060005 49 88 2.6 3.5 0.00 0.00 0.00 86 1016.1
20260507055005 48 76 0.9 2.6 0.00 0.00 0.00 86 1015.8
20260507054005 48 72 0.9 1.7 0.00 0.00 0.00 86 1015.7
20260507053005 48 57 0.9 1.7 0.00 0.00 0.00 85 1015.7
20260507052005 48 60 1.7 3.5 0.00 0.00 0.00 85 1015.6
20260507051005 48 61 2.6 3.5 0.00 0.00 0.00 85 1015.6
20260507050005 48 55 1.7 3.5 0.00 0.00 0.00 85 1015.5
20260507045005 48 55 2.6 3.5 0.00 0.00 0.00 84 1015.7
20260507044005 48 47 1.7 2.6 0.00 0.00 0.00 84 1015.6
20260507043004 48 45 1.7 2.6 0.00 0.00 0.00 84 1015.6
20260507042004 48 45 1.7 2.6 0.00 0.00 0.00 84 1015.5
20260507041004 48 45 1.7 2.6 0.00 0.00 0.00 84 1015.4
20260507040005 48 47 0.9 1.7 0.00 0.00 0.00 84 1015.4
20260507035004 48 56 0.9 1.7 0.00 0.00 0.00 84 1015.5
20260507034004 48 60 0.9 1.7 0.00 0.00 0.00 84 1015.6
20260507032004 48 68 0.9 1.7 0.00 0.00 0.00 84 1015.7
20260507031004 48 57 0.9 1.7 0.00 0.00 0.00 83 1015.5
20260507030004 48 0 0.0 0.0 0.00 0.00 0.00 83 1015.6
20260507025005 48 0 0.0 0.0 0.00 0.00 0.00 83 1015.5
20260507023004 48 0 0.0 0.0 0.00 0.00 0.00 82 1015.3
20260507022004 48 90 0.0 0.9 0.00 0.00 0.00 81 1015.3
20260507021004 49 270 0.0 0.9 0.00 0.00 0.00 81 1015.2
20260507020005 49 0 0.0 0.0 0.00 0.00 0.00 80 1015.1
20260507015005 49 270 0.0 1.7 0.00 0.00 0.00 80 1015.1
20260507014004 49 274 0.9 1.7 0.00 0.00 0.00 80 1015.2
20260507013004 49 303 1.7 2.6 0.00 0.00 0.00 79 1015.2
20260507012004 49 28 0.9 1.7 0.00 0.00 0.00 79 1015.3
20260507010005 50 36 0.9 1.7 0.00 0.00 0.00 78 1015.2
20260507005004 50 26 0.9 1.7 0.00 0.00 0.00 78 1015.1
20260507004005 50 28 0.9 1.7 0.00 0.00 0.00 78 1015.1
20260507003005 50 36 0.9 1.7 0.00 0.00 0.00 78 1015.1
20260507002005 50 58 0.9 1.7 0.00 0.00 0.00 77 1014.9
20260507000005 50 71 1.7 2.6 0.00 0.00 0.00 77 1015.0
20260506235004 50 74 1.7 3.5 0.00 0.00 0.00 76 1015.0
20260506234004 50 70 1.7 3.5 0.00 0.00 0.00 76 1015.1
20260506233004 50 61 1.7 3.5 0.00 0.00 0.00 76 1015.1
20260506232004 51 45 0.9 2.6 0.00 0.00 0.00 76 1015.1
20260506231004 51 0 0.0 0.0 0.00 0.00 0.00 75 1015.1
20260506230012 51 0 0.0 0.0 0.00 0.00 0.00 75 1015.0